[[{"header":{"parameterUnit":"m.s-1","parameterCategory":1,"la1":30.2991,"la2":30.254,"lo1":-89.0895,"lo2":-89.0444,"dy":0.0017,"dx":0.0017,"nx":28,"ny":28,"refTime":"2024-06-29T21:00:00:Z","depth":0,"parameterNumber":2,"parameterNumberName":"U-component_of_WINDS"},"data":[0,0,0,0,0,0,0,0,0,0,0,0,0,0,0,0,0,0,0,0,0,0,0,0,0,0,0,0,0,0,0,0,0,0,0,0,0,0,0,0,0,0,0,0,0,0,0,0,0,0,0,0,0,0,0,0,0,0,0.1059,0.1059,0,0.1048,0.1048,0.1048,0.0931,0.0928,0.0925,0.0922,0.0924,0.0927,0.093,0,0,0,0,0,0,0,0,0,0,0,0,0,0.0991,0.0992,0.1059,0.1059,0.1059,0.1048,0.1048,0.1048,0.0932,0.0928,0.0924,0.0921,0.0923,0.0927,0.093,0,0,0,0,0,0,0,0,0,0,0,0,0,0.1005,0.0993,0.1059,0.0999,0.0994,0.1048,0.1048,0.1048,0.0932,0.0928,0.0923,0.0919,0.0922,0.0926,0.093,0.1046,0,0,0.0943,0.0945,0,0,0,0,0,0,0,0,0.1004,0.1007,0.1008,0.1003,0.0997,0.0986,0.1024,0.1048,0.0933,0.0956,0.0922,0.0917,0.0949,0.0951,0.0959,0.1046,0.1046,0.0944,0.0946,0.0948,0.0949,0,0,0,0,0,0,0,0.1003,0.1007,0.1055,0.1008,0.1002,0.0976,0.0973,0.1028,0.0978,0.0954,0.0945,0.0945,0.0946,0.0955,0.0958,0.1046,0.0944,0.0947,0.095,0.0952,0.1226,0.123,0,0,0,0,0,0,0.1009,0.1007,0.1055,0.1055,0.0989,0.0981,0.0978,0.0994,0.0977,0.097,0.0949,0.0939,0.095,0.0954,0.0958,0.1091,0.0948,0.0952,0.0954,0.1221,0.1227,0.1232,0,0,0,0,0,0,0.1008,0.1014,0.1056,0.1028,0.1032,0.0987,0.1007,0.0997,0.1006,0.0973,0.0965,0.0967,0.0947,0.0952,0.1023,0.1089,0.0954,0.0958,0.1215,0.1223,0.1229,0.1358,0,0,0,0,0,0,0.1006,0.1014,0.1055,0.103,0.1033,0.1119,0.1011,0.1,0.1012,0.1,0.0988,0.0982,0.0944,0.1018,0.1028,0.1093,0.0961,0.1209,0.1219,0.1227,0.1348,0.1369,0.1387,0,0,0,0,0,0.1004,0.1095,0.1058,0.1064,0.1083,0.1123,0.1125,0.1075,0.1018,0.106,0.1039,0.0982,0.108,0.1026,0.1036,0.1104,0.1205,0.1216,0.1226,0.1339,0.1365,0.1386,0,0,0,0,0,0,0.1134,0.1091,0.1049,0.1134,0.1132,0.1103,0.1154,0.1104,0.1122,0.1111,0.1052,0.1051,0.1132,0.1125,0.1065,0.1214,0.1133,0.1146,0.1215,0.1239,0.1258,0.1259,0.0965,0,0,0,0,0,0.1172,0.1204,0.1166,0.1244,0.1245,0.12,0.1216,0.1177,0.1175,0.1175,0.1159,0.1163,0.1194,0.1216,0.1243,0.1346,0.1342,0.1397,0.1417,0.1433,0.1446,0.1499,0.1523,0.1267,0.1267,0.1267,0,0,0.1252,0.1232,0.1257,0.127,0.1264,0.1301,0.1201,0.1245,0.1273,0.1183,0.1248,0.1237,0.1237,0.1324,0.1362,0.1321,0.1515,0.1446,0.1459,0.1463,0.1513,0.1537,0.1559,0.1274,0.1273,0.1272,0,0,0.1416,0.1404,0.1467,0.1462,0.1453,0.1422,0.1437,0.1415,0.1402,0.1465,0.1398,0.1433,0.1488,0.149,0.1499,0.1662,0.1612,0.1673,0.1776,0.1829,0.1849,0.1867,0.1925,0.1947,0.1686,0.1686,0.1686,0,0.1518,0.1567,0.1507,0.1555,0.1563,0.1478,0.1543,0.1543,0.1546,0.1555,0.1508,0.1573,0.1568,0.1654,0.1694,0.1704,0.1721,0.1675,0.185,0.1867,0.1883,0.1938,0.196,0.1694,0.1693,0.1692,0.1691,0,0.1693,0.1729,0.1782,0.178,0.1795,0.1852,0.1803,0.1826,0.1786,0.1761,0.1828,0.1817,0.184,0.1857,0.1821,0.1939,0.1914,0.1859,0.1777,0.1916,0.1967,0.1988,0.1704,0.1702,0.17,0.1698,0,0,0.1941,0.1902,0.1923,0.1921,0.1904,0.1932,0.1986,0.2004,0.2025,0.2029,0.2074,0.2121,0.207,0.208,0.2043,0.2089,0.2219,0.2029,0.2028,0.2065,0.235,0.2391,0.2416,0.2185,0.2189,0.2192,0.235,0,0.2099,0.2183,0.213,0.2225,0.2258,0.2177,0.2224,0.2221,0.2199,0.2227,0.2204,0.2238,0.2167,0.2173,0.2215,0.2195,0.2276,0.2182,0.2229,0.2232,0.2232,0.2443,0.2487,0.2637,0.2369,0.2373,0.2375,0,0.2295,0.2302,0.2399,0.2373,0.2385,0.2428,0.2439,0.2466,0.2461,0.2442,0.2452,0.2403,0.2457,0.2374,0.2449,0.2387,0.2403,0.2396,0.24,0.2404,0.2313,0.2453,0.2683,0.2706,0.2406,0.2403,0.2401,0,0.2466,0.2501,0.2562,0.2563,0.2535,0.2567,0.2558,0.2548,0.2562,0.2573,0.2582,0.2601,0.2613,0.263,0.2589,0.2533,0.267,0.2584,0.2658,0.266,0.2692,0.2691,0.2929,0.2702,0.2701,0.2701,0.27,0,0.2648,0.2711,0.2638,0.2677,0.2745,0.2685,0.2755,0.2738,0.2729,0.2765,0.2698,0.2734,0.2677,0.2708,0.2677,0.2744,0.275,0.2738,0.2729,0.2744,0.2746,0.2755,0.2744,0.2707,0.2705,0.2704,0.2703,0,0.2851,0.2805,0.2867,0.2834,0.2827,0.2879,0.2853,0.2889,0.2861,0.2907,0.2915,0.2873,0.2906,0.2866,0.2898,0.2876,0.2967,0.2943,0.2968,0.2961,0.3037,0.3031,0.329,0.3321,0.3074,0.3076,0.3078,0,0.2971,0.3016,0.2987,0.3003,0.2996,0.3025,0.3037,0.298,0.2997,0.2993,0.303,0.3056,0.3074,0.3132,0.3107,0.313,0.3107,0.3196,0.311,0.3124,0.3109,0.3106,0.3111,0.3214,0.3217,0.3219,0.3221,0,0.3188,0.3162,0.318,0.319,0.3205,0.3212,0.3214,0.3233,0.3173,0.3195,0.3225,0.3239,0.3268,0.3296,0.3312,0.3306,0.3255,0.3248,0.3266,0.3283,0.3295,0.329,0.3016,0.3243,0.3241,0.3239,0.3238,0.3237,0.3353,0.3389,0.3373,0.3396,0.339,0.3393,0.3424,0.3398,0.3421,0.3437,0.3403,0.3442,0.3437,0.3452,0.3452,0.3484,0.3446,0.3473,0.348,0.3487,0.3499,0.3289,0.3487,0.3486,0.3485,0.3485,0.3484,0,0.3567,0.3552,0.3572,0.3575,0.3593,0.3538,0.3537,0.3557,0.3591,0.3587,0.3605,0.364,0.3666,0.3642,0.3664,0.3695,0.3672,0.3703,0.3701,0.37,0.3531,0.3513,0.3721,0.3721,0.3721,0.3721,0.3721,0.372,0.368,0.3738,0.3711,0.3766,0.3751,0.3786,0.379,0.3793,0.3789,0.383,0.385,0.3832,0.3821,0.3842,0.3864,0.3856,0.3868,0.3908,0.3892,0.3735,0.3712,0.369,0.3673,0.3911,0.3911,0.4058,0.406,0.4061]},{"header":{"parameterUnit":"m.s-1","parameterCategory":1,"la1":30.2991,"la2":30.254,"lo1":-89.0895,"lo2":-89.0444,"dy":0.0017,"dx":0.0017,"nx":28,"ny":28,"refTime":"2024-06-29T21:00:00:Z","depth":0,"parameterNumber":3,"parameterNumberName":"V-component_of_WINDS"},"data":[0,0,0,0,0,0,0,0,0,0,0,0,0,0,0,0,0,0,0,0,0,0,0,0,0,0,0,0,0,0,0,0,0,0,0,0,0,0,0,0,0,0,0,0,0,0,0,0,0,0,0,0,0,0,0,0,0,0,3.1722,3.1722,0,3.1766,3.1766,3.1767,3.1698,3.1695,3.1693,3.1691,3.1734,3.1737,3.1741,0,0,0,0,0,0,0,0,0,0,0,0,0,3.1573,3.1576,3.1722,3.1722,3.1723,3.1766,3.1766,3.1767,3.1698,3.1695,3.1692,3.169,3.1733,3.1737,3.1741,0,0,0,0,0,0,0,0,0,0,0,0,0,3.1629,3.1577,3.1721,3.1694,3.1692,3.1766,3.1766,3.1767,3.1699,3.1695,3.1692,3.1688,3.1732,3.1737,3.1742,3.1844,0,0,3.1757,3.1759,0,0,0,0,0,0,0,0,3.1626,3.1635,3.1697,3.1696,3.1694,3.1723,3.173,3.1793,3.17,3.1696,3.1691,3.1687,3.1733,3.1738,3.1754,3.1846,3.1848,3.1757,3.176,3.1763,3.1764,0,0,0,0,0,0,0,3.1622,3.1633,3.1739,3.1698,3.1696,3.1677,3.1681,3.1741,3.1734,3.1696,3.1691,3.1698,3.1731,3.1749,3.1754,3.1849,3.1757,3.1762,3.1765,3.1767,3.2023,3.2027,0,0,0,0,0,0,3.1622,3.163,3.1738,3.174,3.165,3.1683,3.1687,3.1717,3.1733,3.1732,3.1701,3.1694,3.1742,3.1748,3.1756,3.1875,3.1763,3.1767,3.177,3.2019,3.2024,3.2028,0,0,0,0,0,0,3.1619,3.1633,3.1736,3.1684,3.1695,3.1689,3.1723,3.172,3.1737,3.1736,3.1734,3.172,3.174,3.1748,3.1822,3.1875,3.177,3.1774,3.2015,3.2021,3.2026,3.2115,0,0,0,0,0,0,3.1616,3.1632,3.1673,3.1685,3.1698,3.1803,3.1726,3.1723,3.1747,3.1739,3.1755,3.1754,3.1738,3.1815,3.1827,3.188,3.1778,3.201,3.2018,3.2024,3.2107,3.2123,3.2136,0,0,0,0,0,3.161,3.1696,3.1675,3.1688,3.1749,3.1807,3.1814,3.1794,3.1751,3.1791,3.1789,3.1753,3.1867,3.1823,3.1836,3.1892,3.2007,3.2015,3.2024,3.2101,3.212,3.2136,0,0,0,0,0,0,3.169,3.1697,3.1674,3.1767,3.1786,3.1795,3.1844,3.1816,3.1848,3.1839,3.1812,3.1816,3.1895,3.19,3.1851,3.199,3.1929,3.1941,3.1984,3.2002,3.2016,3.2013,3.1782,0,0,0,0,0,3.1719,3.1766,3.1769,3.185,3.1861,3.1851,3.1876,3.1858,3.1877,3.1885,3.1889,3.1909,3.1948,3.1975,3.2012,3.2107,3.2108,3.2151,3.2166,3.2178,3.2188,3.2236,3.2255,3.2056,3.2056,3.2056,0,0,3.1778,3.1787,3.1819,3.1866,3.188,3.1927,3.1859,3.1913,3.1947,3.1893,3.1963,3.1966,3.1985,3.2069,3.2107,3.2077,3.2243,3.2189,3.2198,3.2202,3.2247,3.2266,3.2283,3.2062,3.2061,3.206,0,0,3.191,3.1923,3.1991,3.2005,3.2025,3.2017,3.2033,3.2046,3.2046,3.2115,3.2074,3.2114,3.2184,3.2198,3.2215,3.2348,3.2315,3.236,3.2437,3.2484,3.25,3.2513,3.2559,3.2576,3.2371,3.2371,3.2371,0,3.1981,3.2053,3.2029,3.2085,3.2106,3.2058,3.2125,3.214,3.2171,3.2186,3.2152,3.2236,3.2246,3.2331,3.2363,3.2379,3.2395,3.2359,3.2499,3.2513,3.2525,3.2569,3.2587,3.2376,3.2376,3.2375,3.2375,0,3.2137,3.2187,3.2239,3.227,3.2296,3.2358,3.2342,3.2371,3.235,3.2345,3.2414,3.2424,3.246,3.2479,3.246,3.2561,3.2542,3.2504,3.2443,3.255,3.259,3.2607,3.2384,3.2382,3.238,3.2379,0,0,3.2324,3.2338,3.2358,3.237,3.2387,3.2425,3.2482,3.2518,3.2542,3.2564,3.2611,3.2669,3.2633,3.2652,3.2634,3.2675,3.2777,3.2632,3.2632,3.2658,3.2887,3.2915,3.2935,3.2755,3.2758,3.2761,3.2885,0,3.2454,3.2555,3.2533,3.2631,3.2675,3.2628,3.2678,3.2693,3.2689,3.2724,3.2719,3.2761,3.2711,3.2722,3.2761,3.2757,3.2823,3.2748,3.2797,3.2799,3.2794,3.2957,3.2987,3.3104,3.2901,3.2904,3.2905,0,3.2621,3.2648,3.275,3.2757,3.2775,3.2821,3.2849,3.2885,3.2899,3.2893,3.2912,3.2885,3.294,3.2878,3.2952,3.2901,3.2919,3.292,3.2924,3.2928,3.2859,3.2964,3.3141,3.3159,3.293,3.2928,3.2927,0,3.2744,3.2807,3.2875,3.2887,3.2898,3.293,3.2936,3.2947,3.2969,3.2993,3.3007,3.3038,3.3055,3.3079,3.3059,3.3016,3.3136,3.3072,3.3131,3.3132,3.3159,3.3158,3.3341,3.3171,3.3171,3.3171,3.3171,0,3.2892,3.2956,3.2931,3.2973,3.3042,3.3015,3.3084,3.3084,3.3094,3.3134,3.3095,3.3133,3.3105,3.314,3.3125,3.3188,3.3196,3.3192,3.3187,3.3195,3.3196,3.3207,3.3198,3.3175,3.3174,3.3174,3.3173,0,3.3043,3.3029,3.31,3.3103,3.3105,3.3156,3.3157,3.3195,3.3187,3.3238,3.3248,3.3235,3.3274,3.3257,3.3298,3.3288,3.3368,3.3353,3.3363,3.3359,3.3418,3.3413,3.3615,3.364,3.3455,3.3457,3.3459,0,3.3138,3.3186,3.3193,3.3217,3.3225,3.3265,3.3286,3.326,3.3284,3.3302,3.3338,3.3373,3.34,3.3464,3.3458,3.3488,3.3473,3.3542,3.3478,3.3484,3.3473,3.347,3.3474,3.3555,3.3557,3.3559,3.356,0,3.3308,3.3298,3.333,3.3359,3.3386,3.3408,3.3426,3.3447,3.3422,3.345,3.3489,3.351,3.3551,3.3586,3.3612,3.3616,3.3584,3.358,3.3595,3.3604,3.3608,3.3606,3.3398,3.3576,3.3575,3.3573,3.3573,3.3572,3.3433,3.3472,3.3483,3.3519,3.353,3.3547,3.3582,3.3578,3.361,3.3641,3.3624,3.3669,3.3679,3.3711,3.3719,3.3753,3.3726,3.3748,3.3754,3.3759,3.3767,3.3603,3.3758,3.3757,3.3757,3.3757,3.3756,0,3.36,3.3604,3.3637,3.3664,3.3692,3.3658,3.3675,3.3701,3.3741,3.3754,3.378,3.3824,3.3857,3.3852,3.3882,3.391,3.3896,3.3919,3.3916,3.3917,3.379,3.3774,3.3929,3.3929,3.3929,3.3929,3.3929,3.3929,3.369,3.3754,3.3744,3.3812,3.3815,3.3859,3.3871,3.3886,3.3896,3.3946,3.3973,3.397,3.3974,3.4004,3.4032,3.4029,3.4042,3.407,3.4062,3.3944,3.3927,3.391,3.3895,3.4073,3.4074,3.4187,3.4188,3.4188]}]]